Location: Roland
(31.1349°N, 85.4372°W)
Time: 18:15:19
(UTC+00:00)

SR - Pass Details

Date: 14 April 2021
Orbit: 573 x 882 km, 66.7° (Epoch: 12 May)

Event Time Altitude Azimuth Distance (km) Brightness Sun altitude
Rises 00:17:37 0° 331° (NNW) 3,436 ? -2.6°
Reaches altitude 10° 00:20:12 10° 328° (NNW) 2,468 ? -3.2°
Maximum altitude 00:25:50 63° 248° (WSW) 890 ? -4.3°
Drops below altitude 10° 00:31:01 10° 168° (SSE) 2,274 ? -5.4°
Sets 00:33:18 0° 165° (SSE) 3,146 ? -5.9°
